When you browse on this site, cookies collect data to enhance your experience and personalize the content and advertising you see.
Visit our Privacy Policy to learn more. By continuing to use the site, you agree to this use of cookies and data.
  • In Romania
  • List of Countries
  • For 7 days
  • Water Temperature
  • Satellite Maps
  • Weather Map
  • Weather Widgets
  • user-avatar
    Login

    Hourly Weather Salzburg

    Today, 20 April, Saturday

    Time Temperature Precipitation Wind Pressure Humidity
    00:00 +1°C° 0 mm 2 mps 632 mmHg 75%
    01:00 -1°C° 0 mm 2 mps 632 mmHg 75%
    02:00 -1°C° 0 mm 2 mps 631 mmHg 76%
    03:00 -1°C° 0 mm 2 mps 631 mmHg 76%
    04:00 -2°C° 0 mm 2 mps 631 mmHg 77%
    05:00 +1°C° 0 mm 2 mps 632 mmHg 73%
    06:00 +2°C° 0 mm 2 mps 632 mmHg 69%
    07:00 +4°C° 0 mm 1 mps 632 mmHg 65%
    08:00 +7°C° 0 mm 1 mps 633 mmHg 55%
    09:00 +10°C° 0 mm 1 mps 634 mmHg 44%
    10:00 +13°C° 0 mm 1 mps 635 mmHg 34%
    11:00 +14°C° 0 mm 1 mps 635 mmHg 32%
    12:00 +15°C° 0 mm 1 mps 635 mmHg 31%
    13:00 +16°C° 0 mm 1 mps 635 mmHg 29%
    14:00 +15°C° 0 mm 1 mps 635 mmHg 30%
    15:00 +15°C° 0 mm 1 mps 634 mmHg 32%
    16:00 +14°C° 0 mm 1 mps 634 mmHg 33%
    17:00 +12°C° 0 mm 1 mps 633 mmHg 45%
    18:00 +9°C° 0 mm 1 mps 632 mmHg 57%
    19:00 +5°C° 0 mm 0 mps 630 mmHg 69%
    20:00 +5°C° 0 mm 1 mps 630 mmHg 69%
    21:00 +4°C° 0 mm 1 mps 630 mmHg 69%
    22:00 +2°C° 0 mm 2 mps 630 mmHg 68%
    23:00 +2°C° 0 mm 2 mps 630 mmHg 69%

    Tomorrow, 21 April, Sunday

    Time Temperature Precipitation Wind Pressure Humidity
    00:00 +2°C° 0 mm 2 mps 630 mmHg 70%
    01:00 +1°C° 0 mm 2 mps 630 mmHg 70%
    02:00 +1°C° 0 mm 2 mps 629 mmHg 71%
    03:00 +1°C° 0 mm 2 mps 629 mmHg 73%
    04:00 +1°C° 0 mm 2 mps 629 mmHg 74%
    05:00 +3°C° 0 mm 1 mps 629 mmHg 70%
    06:00 +5°C° 0 mm 1 mps 629 mmHg 66%
    07:00 +6°C° 0 mm 1 mps 630 mmHg 62%
    08:00 +9°C° 0 mm 1 mps 630 mmHg 53%
    09:00 +11°C° 0 mm 1 mps 631 mmHg 45%
    10:00 +14°C° 0 mm 1 mps 632 mmHg 36%
    11:00 +15°C° 0 mm 1 mps 632 mmHg 35%
    12:00 +16°C° 0 mm 1 mps 631 mmHg 33%
    13:00 +16°C° 0 mm 1 mps 631 mmHg 32%
    14:00 +16°C° 0 mm 1 mps 631 mmHg 34%
    15:00 +15°C° 0 mm 1 mps 630 mmHg 36%
    16:00 +15°C° 0 mm 2 mps 629 mmHg 38%
    17:00 +12°C° 0 mm 1 mps 628 mmHg 50%
    18:00 +9°C° 0 mm 1 mps 627 mmHg 62%
    19:00 +7°C° 0 mm 1 mps 626 mmHg 73%
    20:00 +6°C° 0 mm 1 mps 626 mmHg 77%
    21:00 +5°C° 0 mm 1 mps 626 mmHg 81%
    22:00 +4°C° 0 mm 2 mps 626 mmHg 85%
    23:00 +3°C° 0 mm 2 mps 626 mmHg 87%

    Day after tomorrow, 22 April, Monday

    Time Temperature Precipitation Wind Pressure Humidity
    00:00 +3°C° 0 mm 2 mps 626 mmHg 89%
    01:00 +3°C° 0 mm 2 mps 625 mmHg 91%
    02:00 +3°C° 0 mm 2 mps 625 mmHg 91%
    03:00 +3°C° 0 mm 2 mps 624 mmHg 91%
    04:00 +2°C° 0 mm 2 mps 624 mmHg 91%
    05:00 +3°C° 0 mm 2 mps 624 mmHg 86%
    06:00 +5°C° 0 mm 2 mps 624 mmHg 80%
    07:00 +6°C° 0 mm 2 mps 624 mmHg 75%
    08:00 +9°C° 0 mm 1 mps 625 mmHg 64%
    09:00 +12°C° 0 mm 1 mps 625 mmHg 53%
    10:00 +15°C° 0 mm 1 mps 625 mmHg 43%
    11:00 +15°C° 0 mm 1 mps 625 mmHg 40%
    12:00 +16°C° 0 mm 1 mps 625 mmHg 37%
    13:00 +17°C° 0 mm 2 mps 625 mmHg 34%
    14:00 +16°C° 0 mm 2 mps 624 mmHg 36%
    15:00 +16°C° 0 mm 2 mps 623 mmHg 38%
    16:00 +15°C° 0 mm 2 mps 622 mmHg 40%
    17:00 +13°C° 0 mm 2 mps 621 mmHg 51%
    18:00 +9°C° 0 mm 2 mps 620 mmHg 61%
    19:00 +6°C° 0 mm 2 mps 619 mmHg 71%
    20:00 +5°C° 0 mm 2 mps 619 mmHg 72%
    21:00 +3°C° 0 mm 3 mps 618 mmHg 74%
    22:00 +3°C° 0 mm 3 mps 618 mmHg 75%
    23:00 +2°C° 0 mm 3 mps 617 mmHg 75%

    23 April, Tuesday

    Time Temperature Precipitation Wind Pressure Humidity
    00:00 +2°C° 0 mm 3 mps 617 mmHg 75%
    01:00 +2°C° 0 mm 3 mps 616 mmHg 76%
    02:00 +2°C° 0 mm 3 mps 616 mmHg 76%
    03:00 +2°C° 0 mm 3 mps 616 mmHg 77%
    04:00 +2°C° 0 mm 3 mps 615 mmHg 78%
    05:00 +3°C° 0.1 mm 3 mps 615 mmHg 77%
    06:00 +3°C° 0.1 mm 3 mps 615 mmHg 76%
    07:00 +4°C° 0.1 mm 3 mps 616 mmHg 75%
    08:00 +6°C° 0.1 mm 2 mps 616 mmHg 70%
    09:00 +8°C° 0.1 mm 2 mps 617 mmHg 65%
    10:00 +9°C° 0.1 mm 2 mps 617 mmHg 60%
    11:00 +10°C° 0 mm 3 mps 618 mmHg 57%
    12:00 +11°C° 0 mm 3 mps 618 mmHg 53%
    13:00 +12°C° 0 mm 3 mps 618 mmHg 49%
    14:00 +12°C° 0 mm 3 mps 618 mmHg 49%
    15:00 +12°C° 0 mm 3 mps 618 mmHg 49%
    16:00 +12°C° 0 mm 3 mps 618 mmHg 50%
    17:00 +10°C° 0 mm 3 mps 618 mmHg 58%
    18:00 +8°C° 0 mm 3 mps 617 mmHg 67%
    19:00 +5°C° 0 mm 3 mps 617 mmHg 76%
    20:00 +5°C° 0 mm 3 mps 617 mmHg 78%
    21:00 +4°C° 0 mm 3 mps 617 mmHg 81%
    22:00 +3°C° 0 mm 3 mps 618 mmHg 83%
    23:00 +3°C° 0.5 mm 3 mps 618 mmHg 84%

    24 April, Wednesday

    Time Temperature Precipitation Wind Pressure Humidity
    00:00 +3°C° 0.5 mm 3 mps 619 mmHg 85%
    01:00 +4°C° 0.5 mm 2 mps 619 mmHg 85%
    02:00 +4°C° 0.5 mm 2 mps 619 mmHg 86%
    03:00 +4°C° 0.5 mm 2 mps 620 mmHg 87%
    04:00 +4°C° 0.5 mm 2 mps 620 mmHg 88%
    05:00 +5°C° 0.2 mm 2 mps 621 mmHg 85%
    06:00 +6°C° 0.2 mm 2 mps 622 mmHg 82%
    07:00 +7°C° 0.2 mm 2 mps 623 mmHg 80%
    08:00 +9°C° 0 mm 2 mps 624 mmHg 71%
    09:00 +12°C° 0 mm 2 mps 625 mmHg 62%
    10:00 +14°C° 0 mm 1 mps 626 mmHg 53%
    11:00 +14°C° 0.6 mm 2 mps 626 mmHg 55%
    12:00 +15°C° 0.6 mm 2 mps 626 mmHg 57%
    13:00 +15°C° 0.6 mm 2 mps 626 mmHg 59%
    14:00 +15°C° 0.5 mm 2 mps 626 mmHg 59%
    15:00 +15°C° 0.5 mm 2 mps 626 mmHg 59%
    16:00 +15°C° 0.5 mm 2 mps 626 mmHg 59%
    17:00 +13°C° 0 mm 2 mps 626 mmHg 65%
    18:00 +10°C° 0 mm 2 mps 625 mmHg 71%
    19:00 +8°C° 0 mm 2 mps 624 mmHg 77%
    20:00 +7°C° 0 mm 2 mps 624 mmHg 79%
    21:00 +6°C° 0 mm 2 mps 624 mmHg 82%
    22:00 +5°C° 0 mm 2 mps 624 mmHg 84%
    23:00 +5°C° 0 mm 2 mps 624 mmHg 85%

    25 April, Thursday

    Time Temperature Precipitation Wind Pressure Humidity
    00:00 +3°C° 0 mm 3 mps 624 mmHg 86%
    01:00 +3°C° 0 mm 3 mps 624 mmHg 87%
    02:00 +3°C° 0 mm 3 mps 624 mmHg 87%
    03:00 +3°C° 0 mm 3 mps 624 mmHg 88%
    04:00 +3°C° 0 mm 3 mps 624 mmHg 88%
    05:00 +4°C° 0 mm 3 mps 624 mmHg 83%
    06:00 +5°C° 0 mm 3 mps 624 mmHg 79%
    07:00 +7°C° 0 mm 3 mps 624 mmHg 74%
    08:00 +9°C° 0 mm 3 mps 625 mmHg 65%
    09:00 +12°C° 0 mm 3 mps 626 mmHg 56%
    10:00 +14°C° 0 mm 3 mps 626 mmHg 47%
    11:00 +16°C° 0 mm 3 mps 626 mmHg 43%
    12:00 +18°C° 0 mm 3 mps 626 mmHg 39%
    13:00 +19°C° 0 mm 3 mps 626 mmHg 35%
    14:00 +18°C° 0 mm 3 mps 625 mmHg 37%
    15:00 +17°C° 0 mm 3 mps 625 mmHg 40%
    16:00 +15°C° 0 mm 4 mps 624 mmHg 42%
    17:00 +13°C° 0 mm 3 mps 623 mmHg 51%
    18:00 +11°C° 0 mm 3 mps 622 mmHg 59%
    19:00 +9°C° 0 mm 3 mps 621 mmHg 68%
    20:00 +8°C° 0 mm 3 mps 621 mmHg 70%
    21:00 +7°C° 0 mm 3 mps 621 mmHg 73%
    22:00 +7°C° 0 mm 3 mps 621 mmHg 75%
    23:00 +6°C° 0 mm 2 mps 620 mmHg 78%
    Show more